When you browse on this site, cookies collect data to enhance your experience and personalize the content and advertising you see.
Visit our Privacy Policy to learn more. By continuing to use the site, you agree to this use of cookies and data.
  • Em Portugal
  • Lista de países
  • Para 7 dias
  • Temperatura da água
  • Mapas de satélite
  • Mapa do tempo
  • Widgets de tempo
  • user-avatar
    Iniciar Sessão

    Previsão horária em Kochergino

    Hoje, 20 Julho, Sábado

    Tempo Temperatura Precipitação Vento Pressão Humidade
    00:00 +14°C° 0.1 mm 3 m/s 733 mmHg 97%
    01:00 +14°C° 0.1 mm 3 m/s 734 mmHg 98%
    02:00 +14°C° 0.1 mm 3 m/s 734 mmHg 98%
    03:00 +14°C° 0.3 mm 3 m/s 734 mmHg 98%
    04:00 +14°C° 0.3 mm 3 m/s 735 mmHg 98%
    05:00 +14°C° 0.3 mm 3 m/s 735 mmHg 98%
    06:00 +14°C° 0.2 mm 3 m/s 735 mmHg 97%
    07:00 +14°C° 0.2 mm 3 m/s 735 mmHg 96%
    08:00 +16°C° 0.2 mm 3 m/s 736 mmHg 95%
    09:00 +16°C° 0.3 mm 3 m/s 736 mmHg 96%
    10:00 +16°C° 0.3 mm 3 m/s 736 mmHg 96%
    11:00 +16°C° 0.3 mm 3 m/s 737 mmHg 96%
    12:00 +16°C° 0.5 mm 3 m/s 737 mmHg 94%
    13:00 +17°C° 0.5 mm 3 m/s 737 mmHg 92%
    14:00 +18°C° 0.5 mm 3 m/s 737 mmHg 90%
    15:00 +19°C° 0.6 mm 3 m/s 737 mmHg 89%
    16:00 +19°C° 0.6 mm 3 m/s 738 mmHg 88%
    17:00 +19°C° 0.6 mm 3 m/s 738 mmHg 87%
    18:00 +18°C° 0.2 mm 3 m/s 738 mmHg 90%
    19:00 +17°C° 0.2 mm 2 m/s 738 mmHg 92%
    20:00 +16°C° 0.2 mm 2 m/s 738 mmHg 94%
    21:00 +15°C° 0 mm 2 m/s 738 mmHg 95%
    22:00 +14°C° 0 mm 2 m/s 738 mmHg 96%
    23:00 +14°C° 0 mm 2 m/s 739 mmHg 96%

    Amanhã, 21 Julho, Domingo

    Tempo Temperatura Precipitação Vento Pressão Humidade
    00:00 +13°C° 0 mm 2 m/s 739 mmHg 97%
    01:00 +13°C° 0 mm 2 m/s 739 mmHg 97%
    02:00 +13°C° 0 mm 2 m/s 739 mmHg 97%
    03:00 +13°C° 0 mm 2 m/s 739 mmHg 98%
    04:00 +13°C° 0 mm 1 m/s 739 mmHg 98%
    05:00 +13°C° 0 mm 1 m/s 740 mmHg 98%
    06:00 +15°C° 0 mm 1 m/s 740 mmHg 94%
    07:00 +16°C° 0 mm 1 m/s 740 mmHg 90%
    08:00 +18°C° 0 mm 2 m/s 740 mmHg 86%
    09:00 +19°C° 0.6 mm 2 m/s 740 mmHg 84%
    10:00 +20°C° 0.6 mm 2 m/s 740 mmHg 81%
    11:00 +20°C° 0.6 mm 2 m/s 740 mmHg 79%
    12:00 +21°C° 0.9 mm 2 m/s 740 mmHg 78%
    13:00 +21°C° 0.9 mm 2 m/s 740 mmHg 78%
    14:00 +22°C° 0.9 mm 1 m/s 740 mmHg 77%
    15:00 +22°C° 1.1 mm 1 m/s 740 mmHg 79%
    16:00 +22°C° 1.1 mm 1 m/s 740 mmHg 81%
    17:00 +22°C° 1.1 mm 1 m/s 740 mmHg 84%
    18:00 +20°C° 0.2 mm 1 m/s 740 mmHg 86%
    19:00 +19°C° 0.2 mm 1 m/s 740 mmHg 89%
    20:00 +16°C° 0.2 mm 1 m/s 739 mmHg 92%
    21:00 +15°C° 0 mm 0 m/s 739 mmHg 92%
    22:00 +14°C° 0 mm 0 m/s 740 mmHg 92%
    23:00 +13°C° 0 mm 0 m/s 740 mmHg 93%

    Depois de amanhã, 22 Julho, Segunda-feira

    Tempo Temperatura Precipitação Vento Pressão Humidade
    00:00 +13°C° 0 mm 0 m/s 739 mmHg 93%
    01:00 +12°C° 0 mm 0 m/s 739 mmHg 93%
    02:00 +12°C° 0 mm 0 m/s 739 mmHg 94%
    03:00 +12°C° 0 mm 0 m/s 739 mmHg 94%
    04:00 +13°C° 0 mm 0 m/s 739 mmHg 93%
    05:00 +14°C° 0 mm 1 m/s 739 mmHg 93%
    06:00 +16°C° 0 mm 1 m/s 739 mmHg 88%
    07:00 +17°C° 0 mm 0 m/s 739 mmHg 82%
    08:00 +19°C° 0 mm 0 m/s 739 mmHg 77%
    09:00 +22°C° 0 mm 1 m/s 739 mmHg 68%
    10:00 +24°C° 0 mm 1 m/s 739 mmHg 60%
    11:00 +25°C° 0 mm 1 m/s 739 mmHg 52%
    12:00 +25°C° 0 mm 1 m/s 739 mmHg 50%
    13:00 +26°C° 0 mm 1 m/s 738 mmHg 48%
    14:00 +26°C° 0 mm 1 m/s 738 mmHg 47%
    15:00 +26°C° 0 mm 2 m/s 738 mmHg 50%
    16:00 +25°C° 0 mm 2 m/s 738 mmHg 54%
    17:00 +25°C° 0 mm 2 m/s 738 mmHg 57%
    18:00 +23°C° 0 mm 2 m/s 738 mmHg 65%
    19:00 +20°C° 0 mm 2 m/s 738 mmHg 73%
    20:00 +18°C° 0 mm 2 m/s 737 mmHg 81%
    21:00 +17°C° 0 mm 2 m/s 737 mmHg 81%
    22:00 +16°C° 0 mm 2 m/s 737 mmHg 81%
    23:00 +15°C° 0 mm 2 m/s 737 mmHg 81%

    23 Julho, Terça-feira

    Tempo Temperatura Precipitação Vento Pressão Humidade
    00:00 +15°C° 0 mm 2 m/s 737 mmHg 81%
    01:00 +14°C° 0 mm 2 m/s 737 mmHg 81%
    02:00 +14°C° 0 mm 2 m/s 737 mmHg 81%
    03:00 +14°C° 0 mm 2 m/s 737 mmHg 81%
    04:00 +14°C° 0 mm 2 m/s 737 mmHg 82%
    05:00 +14°C° 0 mm 2 m/s 737 mmHg 82%
    06:00 +16°C° 0 mm 2 m/s 738 mmHg 77%
    07:00 +18°C° 0 mm 2 m/s 738 mmHg 72%
    08:00 +20°C° 0 mm 2 m/s 738 mmHg 67%
    09:00 +21°C° 0 mm 2 m/s 738 mmHg 61%
    10:00 +24°C° 0 mm 2 m/s 738 mmHg 54%
    11:00 +25°C° 0 mm 2 m/s 738 mmHg 48%
    12:00 +25°C° 0 mm 2 m/s 738 mmHg 49%
    13:00 +25°C° 0 mm 2 m/s 738 mmHg 49%
    14:00 +25°C° 0 mm 2 m/s 738 mmHg 49%
    15:00 +25°C° 0 mm 2 m/s 738 mmHg 52%
    16:00 +24°C° 0 mm 3 m/s 738 mmHg 54%
    17:00 +24°C° 0 mm 3 m/s 738 mmHg 56%
    18:00 +21°C° 0 mm 3 m/s 738 mmHg 63%
    19:00 +20°C° 0 mm 2 m/s 738 mmHg 71%
    20:00 +18°C° 0 mm 2 m/s 738 mmHg 78%
    21:00 +17°C° 0 mm 2 m/s 738 mmHg 79%
    22:00 +16°C° 0 mm 2 m/s 738 mmHg 80%
    23:00 +15°C° 0 mm 2 m/s 739 mmHg 81%

    24 Julho, Quarta-feira

    Tempo Temperatura Precipitação Vento Pressão Humidade
    00:00 +14°C° 0 mm 2 m/s 739 mmHg 81%
    01:00 +14°C° 0 mm 2 m/s 739 mmHg 82%
    02:00 +13°C° 0 mm 2 m/s 739 mmHg 82%
    03:00 +13°C° 0 mm 2 m/s 739 mmHg 81%
    04:00 +13°C° 0 mm 2 m/s 739 mmHg 80%
    05:00 +12°C° 0 mm 3 m/s 739 mmHg 79%
    06:00 +14°C° 0 mm 3 m/s 739 mmHg 71%
    07:00 +17°C° 0 mm 3 m/s 739 mmHg 64%
    08:00 +19°C° 0 mm 3 m/s 739 mmHg 57%
    09:00 +21°C° 0 mm 3 m/s 739 mmHg 53%
    10:00 +22°C° 0 mm 3 m/s 739 mmHg 49%
    11:00 +24°C° 0 mm 3 m/s 739 mmHg 45%
    12:00 +24°C° 0 mm 3 m/s 739 mmHg 45%
    13:00 +25°C° 0 mm 4 m/s 739 mmHg 45%
    14:00 +25°C° 0 mm 4 m/s 739 mmHg 45%
    15:00 +25°C° 0 mm 4 m/s 739 mmHg 46%
    16:00 +23°C° 0 mm 4 m/s 739 mmHg 47%
    17:00 +23°C° 0 mm 4 m/s 739 mmHg 47%
    18:00 +21°C° 0 mm 3 m/s 739 mmHg 56%
    19:00 +19°C° 0 mm 3 m/s 740 mmHg 65%
    20:00 +17°C° 0 mm 2 m/s 740 mmHg 73%
    21:00 +16°C° 0 mm 2 m/s 740 mmHg 77%
    22:00 +15°C° 0 mm 2 m/s 740 mmHg 80%
    23:00 +14°C° 0 mm 2 m/s 740 mmHg 83%

    25 Julho, Quinta-feira

    Tempo Temperatura Precipitação Vento Pressão Humidade
    00:00 +14°C° 0 mm 2 m/s 741 mmHg 85%
    01:00 +14°C° 0 mm 2 m/s 741 mmHg 86%
    02:00 +13°C° 0 mm 2 m/s 741 mmHg 88%
    03:00 +14°C° 0 mm 2 m/s 741 mmHg 87%
    04:00 +14°C° 0 mm 2 m/s 741 mmHg 86%
    05:00 +14°C° 0 mm 2 m/s 741 mmHg 86%
    06:00 +16°C° 0 mm 2 m/s 741 mmHg 78%
    07:00 +19°C° 0 mm 2 m/s 742 mmHg 69%
    08:00 +21°C° 0 mm 3 m/s 742 mmHg 61%
    09:00 +22°C° 0 mm 3 m/s 742 mmHg 57%
    10:00 +23°C° 0 mm 4 m/s 742 mmHg 52%
    11:00 +26°C° 0 mm 4 m/s 742 mmHg 48%
    12:00 +26°C° 0.1 mm 4 m/s 742 mmHg 50%
    13:00 +26°C° 0.1 mm 4 m/s 741 mmHg 53%
    14:00 +25°C° 0.1 mm 4 m/s 741 mmHg 55%
    15:00 +24°C° 0.3 mm 3 m/s 741 mmHg 63%
    16:00 +22°C° 0.3 mm 3 m/s 741 mmHg 72%
    17:00 +21°C° 0.3 mm 3 m/s 741 mmHg 80%
    18:00 +20°C° 0 mm 2 m/s 741 mmHg 83%
    19:00 +19°C° 0 mm 2 m/s 741 mmHg 87%
    20:00 +18°C° 0 mm 2 m/s 741 mmHg 91%
    21:00 +17°C° 0 mm 2 m/s 741 mmHg 92%
    22:00 +17°C° 0 mm 2 m/s 741 mmHg 94%
    23:00 +16°C° 0 mm 2 m/s 741 mmHg 95%
    Mostrar mais